This is the latest recevied weather packets stored in our database for station/object K6CED. If no packets are shown the sender has not sent any weather packets the latest 10 day(s).
| Time | Temp. | Humidity | Pressure | Rain* | Wind** | Luminosity | Snow |
|---|---|---|---|---|---|---|---|
| 1788565038 | 28.89° C | 30% | 1015 hPa | 0 mm | - | 326 W/m² | - |
| 1788564735 | 28.33° C | 31% | 1014.8 hPa | 0 mm | - | 330 W/m² | - |
| 1788564431 | 28.33° C | 30% | 1014.8 hPa | 0 mm | - | 352 W/m² | - |
| 1788564127 | 28.89° C | 32% | 1014.9 hPa | 0 mm | - | 373 W/m² | - |
| 1788563822 | 28.33° C | 30% | 1014.9 hPa | 0 mm | - | 389 W/m² | - |
| 1788563517 | 28.89° C | 31% | 1015 hPa | 0 mm | - | 414 W/m² | - |
| 1788563217 | 28.89° C | 31% | 1014.9 hPa | 0 mm | - | 444 W/m² | - |
| 1788562912 | 28.89° C | 32% | 1014.9 hPa | 0 mm | - | 474 W/m² | - |
| 1788562610 | 29.44° C | 32% | 1015 hPa | 0 mm | - | 494 W/m² | - |
| 1788562305 | 29.44° C | 33% | 1015.1 hPa | 0 mm | - | 512 W/m² | - |
| 1788561999 | 28.89° C | 34% | 1015 hPa | 0 mm | - | 533 W/m² | - |
| 1788561699 | 28.89° C | 34% | 1014.8 hPa | 0 mm | - | 548 W/m² | - |
| 1788561393 | 29.44° C | 32% | 1014.9 hPa | 0 mm | - | 566 W/m² | - |
| 1788561089 | 29.44° C | 35% | 1015.2 hPa | 0 mm | - | 581 W/m² | - |
| 1788560785 | 28.89° C | 35% | 1015.3 hPa | 0 mm | - | 597 W/m² | - |
| 1788560479 | 28.89° C | 37% | 1015.1 hPa | 0 mm | - | 613 W/m² | - |
| 1788560174 | 29.44° C | 36% | 1015.4 hPa | 0 mm | - | 630 W/m² | - |
| 1788559874 | 28.89° C | 37% | 1015.4 hPa | 0 mm | - | 644 W/m² | - |
| 1788559569 | 28.89° C | 38% | 1015.1 hPa | 0 mm | - | 662 W/m² | - |
| 1788559264 | 29.44° C | 37% | 1015.3 hPa | 0 mm | - | 676 W/m² | - |
| 1788558958 | 29.44° C | 38% | 1015.4 hPa | 0 mm | - | 690 W/m² | - |
| 1788558654 | 29.44° C | 38% | 1015.1 hPa | 0 mm | - | 699 W/m² | - |
| 1788558349 | 28.89° C | 38% | 1015.3 hPa | 0 mm | - | 711 W/m² | - |
| 1788558045 | 29.44° C | 38% | 1015.3 hPa | 0 mm | - | 719 W/m² | - |
| 1788557743 | 28.89° C | 38% | 1015.3 hPa | 0 mm | - | 727 W/m² | - |
* Rain latest hour (hover to see other rain measurements)
** Current wind speed in m/s (hover to see current wind gust speed)